Weather History for Iowa Falls, IA

Change the Weather History Date:

Sunday, October 23, 2011

  Actual Average Record
Temperature  
Mean Temperature 52 °F -  
Max Temperature 71 °F 59 °F 82 °F (1963)
Min Temperature 33 °F 38 °F 19 °F (1981)
Degree Days  
Heating Degree Days 13    
Growing Degree Days 2 (Base 50)    
Moisture  
Dew Point 38 °F    
Average Humidity 61    
Maximum Humidity 87    
Minimum Humidity 31    
Precipitation  
Precipitation 0.00 in - - ()
Sea Level Pressure  
Sea Level Pressure 29.92 in    
Wind  
Wind Speed 5 mph (WSW)    
Max Wind Speed 20 mph    
Max Gust Speed 28 mph    
Visibility 10 miles    
Events      
Averages and records for this station are not official NWS values.
T = Trace of Precipitation, MM = Missing Value Source: NWS Daily Summary

Daily Weather History Graph

Daily Weather History Graph

Search for Another Location

Airport:

Trip Planner

Search our weather history database for the weather conditions in past years. The results will help you decide how hot, cold, wet, or windy it might be!

Date:

Astronomy

Oct. 23, 2011 Rise Set
Actual Time 7:35 AM CDT 6:18 PM CDT
Civil Twilight 7:06 AM CDT 6:47 PM CDT
Nautical Twilight 6:33 AM CDT 7:20 PM CDT
Astronomical Twilight 6:01 AM CDT 7:52 PM CDT
Moon 3:38 AM CDT (10/23) 4:13 PM CDT (10/23)
Length of Visible Light 11h 41m
Length of Day
10h 43m
Waning Crescent, 14% of the Moon is Illuminated
Oct 23
Waning Crescent
Oct 26
New
Nov 2
First Quarter
Nov 10
Full
Nov 18
Last Quarter

Hourly Weather History & Observations

Time (CDT) Temp. Windchill Dew Point Humidity Pressure Visibility Wind Dir Wind Speed Gust Speed Precip Events Conditions
12:15 AM 37.4 °F - 32.0 °F 81% 30.00 in 10.0 mi Calm Calm - N/A   Clear
12:35 AM 35.6 °F - 32.0 °F 87% 30.00 in 7.0 mi Calm Calm - N/A   Clear
12:55 AM 35.6 °F - 32.0 °F 87% 30.00 in 7.0 mi Calm Calm - N/A   Clear
1:15 AM 33.8 °F - 30.2 °F 87% 30.01 in 10.0 mi Calm Calm - N/A   Clear
1:35 AM 39.2 °F - 33.8 °F 81% 30.00 in 10.0 mi Calm Calm - N/A   Clear
1:55 AM 37.4 °F - 32.0 °F 81% 30.00 in 5.0 mi Calm Calm - N/A   Haze
2:15 AM 37.4 °F - 32.0 °F 81% 30.00 in 7.0 mi Calm Calm - N/A   Clear
2:55 AM 35.6 °F - 32.0 °F 87% 30.00 in 7.0 mi Calm Calm - N/A   Scattered Clouds
3:35 AM 37.4 °F 34.9 °F 32.0 °F 81% 29.99 in 10.0 mi SW 3.5 mph - N/A   Overcast
3:55 AM 41.0 °F 37.1 °F 33.8 °F 76% 29.99 in 10.0 mi SW 5.8 mph - N/A   Mostly Cloudy
4:15 AM 41.0 °F - 33.8 °F 76% 29.97 in 10.0 mi Calm Calm - N/A   Mostly Cloudy
4:35 AM 41.0 °F - 33.8 °F 76% 29.97 in 10.0 mi Calm Calm - N/A   Overcast
4:55 AM 41.0 °F 38.0 °F 33.8 °F 76% 29.97 in 10.0 mi SSW 4.6 mph - N/A   Overcast
5:15 AM 39.2 °F - 33.8 °F 81% 29.97 in 10.0 mi Calm Calm - N/A   Scattered Clouds
5:35 AM 37.4 °F - 33.8 °F 87% 29.97 in 10.0 mi Calm Calm - N/A   Clear
5:55 AM 39.2 °F - 33.8 °F 81% 29.97 in 10.0 mi Calm Calm - N/A   Clear
6:15 AM 39.2 °F - 32.0 °F 75% 29.97 in 10.0 mi Calm Calm - N/A   Clear
6:55 AM 37.4 °F - 32.0 °F 81% 29.96 in 10.0 mi Calm Calm - N/A   Clear
7:15 AM 37.4 °F - 32.0 °F 81% 29.95 in 10.0 mi Calm Calm - N/A   Clear
7:35 AM 37.4 °F 33.8 °F 32.0 °F 81% 29.94 in 10.0 mi South 4.6 mph - N/A   Clear
7:55 AM 37.4 °F 34.9 °F 32.0 °F 81% 29.94 in 10.0 mi South 3.5 mph - N/A   Clear
8:15 AM 39.2 °F - 33.8 °F 81% 29.95 in 10.0 mi Calm Calm - N/A   Clear
8:35 AM 41.0 °F - 37.4 °F 87% 29.95 in 10.0 mi Calm Calm - N/A   Clear
8:55 AM 42.8 °F - 37.4 °F 81% 29.95 in 10.0 mi Calm Calm - N/A   Clear
9:15 AM 44.6 °F 43.1 °F 39.2 °F 81% 29.94 in 10.0 mi SSW 3.5 mph - N/A   Clear
9:35 AM 50.0 °F - 42.8 °F 76% 29.94 in 10.0 mi SW 6.9 mph - N/A   Clear
9:55 AM 53.6 °F - 44.6 °F 72% 29.94 in 10.0 mi SW 11.5 mph - N/A   Scattered Clouds
10:15 AM 55.4 °F - 44.6 °F 67% 29.94 in 10.0 mi SW 12.7 mph - N/A   Mostly Cloudy
10:35 AM 57.2 °F - 44.6 °F 63% 29.93 in 10.0 mi SW 12.7 mph - N/A   Mostly Cloudy
10:55 AM 59.0 °F - 44.6 °F 59% 29.94 in 10.0 mi SW 18.4 mph 21.9 mph N/A   Mostly Cloudy
11:15 AM 60.8 °F - 44.6 °F 55% 29.92 in 10.0 mi SW 17.3 mph 23.0 mph N/A   Scattered Clouds
11:35 AM 60.8 °F - 44.6 °F 55% 29.92 in 10.0 mi SW 15.0 mph 19.6 mph N/A   Clear
11:55 AM 60.8 °F - 42.8 °F 52% 29.92 in 10.0 mi SW 17.3 mph - N/A   Clear
12:15 PM 62.6 °F - 42.8 °F 48% 29.91 in 10.0 mi SW 13.8 mph - N/A   Clear
12:35 PM 62.6 °F - 42.8 °F 48% 29.90 in 10.0 mi SW 16.1 mph - N/A   Scattered Clouds
12:55 PM 64.4 °F - 42.8 °F 45% 29.89 in 10.0 mi SW 16.1 mph 20.7 mph N/A   Scattered Clouds
1:15 PM 66.2 °F - 42.8 °F 43% 29.88 in 10.0 mi SW 15.0 mph 23.0 mph N/A   Scattered Clouds
1:35 PM 66.2 °F - 42.8 °F 43% 29.88 in 10.0 mi WSW 13.8 mph - N/A   Mostly Cloudy
1:55 PM 68.0 °F - 42.8 °F 40% 29.87 in 10.0 mi WSW 17.3 mph 25.3 mph N/A   Scattered Clouds
2:15 PM 68.0 °F - 42.8 °F 40% 29.86 in 10.0 mi WSW 19.6 mph 24.2 mph N/A   Mostly Cloudy
2:35 PM 69.8 °F - 41.0 °F 35% 29.85 in 10.0 mi WSW 15.0 mph 24.2 mph N/A   Scattered Clouds
3:15 PM 69.8 °F - 41.0 °F 35% 29.84 in 10.0 mi WSW 17.3 mph - N/A   Scattered Clouds
3:35 PM 69.8 °F - 41.0 °F 35% 29.84 in 10.0 mi WSW 15.0 mph 21.9 mph N/A   Mostly Cloudy
3:55 PM 71.6 °F - 39.2 °F 31% 29.83 in 10.0 mi WSW 12.7 mph - N/A   Scattered Clouds
4:15 PM 71.6 °F - 39.2 °F 31% 29.82 in 10.0 mi WSW 11.5 mph - N/A   Scattered Clouds
4:35 PM 71.6 °F - 39.2 °F 31% 29.82 in 10.0 mi SW 16.1 mph 19.6 mph N/A   Scattered Clouds
4:55 PM 69.8 °F - 37.4 °F 31% 29.82 in 10.0 mi WSW 12.7 mph - N/A   Scattered Clouds
5:15 PM 69.8 °F - 39.2 °F 33% 29.82 in 10.0 mi WSW 16.1 mph - N/A   Mostly Cloudy
5:35 PM 68.0 °F - 39.2 °F 35% 29.82 in 10.0 mi WSW 10.4 mph - N/A   Overcast
5:55 PM 68.0 °F - 39.2 °F 35% 29.82 in 10.0 mi WSW 8.1 mph - N/A   Mostly Cloudy
6:15 PM 62.6 °F - 39.2 °F 42% 29.82 in 10.0 mi WSW 5.8 mph - N/A   Overcast
6:35 PM 60.8 °F - 39.2 °F 45% 29.82 in 10.0 mi WSW 9.2 mph - N/A   Mostly Cloudy
6:55 PM 62.6 °F - 39.2 °F 42% 29.83 in 10.0 mi West 10.4 mph - N/A   Overcast
7:15 PM 60.8 °F - 37.4 °F 42% 29.85 in 10.0 mi NW 19.6 mph 25.3 mph N/A   Mostly Cloudy
7:35 PM 60.8 °F - 41.0 °F 48% 29.87 in 10.0 mi NNW 19.6 mph 27.6 mph N/A   Scattered Clouds
7:55 PM 59.0 °F - 41.0 °F 51% 29.88 in 10.0 mi NNW 16.1 mph 20.7 mph N/A   Scattered Clouds
8:15 PM 57.2 °F - 41.0 °F 55% 29.89 in 10.0 mi NNW 13.8 mph - N/A   Clear
8:35 PM 55.4 °F - 39.2 °F 54% 29.90 in 10.0 mi NNW 13.8 mph 23.0 mph N/A   Scattered Clouds
8:55 PM 55.4 °F - 41.0 °F 58% 29.91 in 10.0 mi NNW 13.8 mph - N/A   Scattered Clouds
9:35 PM 53.6 °F - 41.0 °F 62% 29.94 in 10.0 mi NNW 11.5 mph - N/A   Scattered Clouds
9:55 PM 51.8 °F - 41.0 °F 67% 29.95 in 10.0 mi NNW 10.4 mph - N/A   Clear
10:15 PM 50.0 °F - 41.0 °F 71% 29.96 in 10.0 mi NNW 9.2 mph - N/A   Scattered Clouds
10:35 PM 50.0 °F - 39.2 °F 66% 29.96 in 10.0 mi NNW 9.2 mph - N/A   Scattered Clouds
10:55 PM 48.2 °F - 39.2 °F 71% 29.97 in 10.0 mi NNW 5.8 mph - N/A   Clear
11:15 PM 44.6 °F 42.2 °F 37.4 °F 76% 29.97 in 10.0 mi NW 4.6 mph - N/A   Clear
11:35 PM 42.8 °F 39.3 °F 37.4 °F 81% 29.97 in 10.0 mi NW 5.8 mph - N/A   Clear
11:55 PM 41.0 °F 38.0 °F 35.6 °F 81% 29.98 in 10.0 mi NW 4.6 mph - N/A   Clear